Flag for China Weather past 2 weeks in Hohhot, Inner Mongolia, China

Now
63 °F

Clear.


Feels Like: 63 °F
Forecast: 55 / 85 °F
Wind: 6 mph from Northeast

Location: Hohhot Airport

Current Time: May 26, 2015 at 1:51:57 AM

Latest Report: May 26, 2015 at 1:00 AM


Visibility: 10 mi

Pressure: 29.83 "Hg

Humidity: 37%

Dew point: 36 °F

Location of HohhotLocation

Historic Weather in Hohhot — Graph

°F

Hohhot temperature yesterday

Maximum temperature yesterday: 90 °F (at 3:00 PM)
Minimum temperature yesterday: 54 °F (at 5:00 AM)
Average temperature yesterday: 72 °F

Past Weeks' High & Low Weather Summary

 TemperatureHumidityPressure
High90 °F (May 25, 3:00 PM)81% (May 11, 4:00 AM)30.21 "Hg (May 11, 4:00 AM)
Low36 °F (May 11, 4:00 AM)10% (May 12, 4:00 PM)29.50 "Hg (May 12, 5:00 PM)
Average61 °F32%29.87 "Hg
* Reported Midnight between May 10 and May 11 — Midnight between May 25 and May 26, Hohhot, Weather by CustomWeather, © 2015

Note: Actual official high and low records may vary slightly from our data, if they occured in-between our weather recording intervals... More about our weather records

Advertising

Hohhot weather history for previous 24 hours

 ConditionsComfort  
Time TempWeatherWind HumidityBarometerVisibility
12:00 AM
Tue, May 26
68 °FClear.3 mph30%29.83 "Hg10 mi
11:00 PM
Mon, May 25
68 °FClear.3 mph30%29.83 "Hg10 mi
10:00 PM70 °FPassing clouds.3 mph27%29.80 "HgN/A
9:00 PM75 °FClear.3 mph24%29.80 "Hg10 mi
8:00 PM81 °FClear.3 mph18%29.77 "Hg10 mi
7:00 PM86 °FSunny.6 mph14%29.77 "Hg10 mi
6:00 PM88 °FPassing clouds.8 mph13%29.74 "HgN/A
5:00 PM88 °FPassing clouds.13 mph13%29.74 "HgN/A
4:00 PM90 °FPassing clouds.8 mph13%29.74 "HgN/A
3:00 PM90 °FPassing clouds.10 mph13%29.77 "HgN/A
2:00 PM86 °FPassing clouds.6 mph17%29.77 "HgN/A
1:00 PM84 °FPassing clouds.3 mph20%29.80 "HgN/A
12:00 PM82 °FPassing clouds.6 mph23%29.83 "HgN/A
11:00 AM79 °FPassing clouds.6 mph26%29.86 "HgN/A
10:00 AM73 °FPassing clouds.6 mph31%29.86 "HgN/A
9:00 AM72 °FPassing clouds.3 mph31%29.86 "HgN/A
8:00 AM68 °FSunny.1 mph40%29.86 "Hg10 mi
7:00 AM63 °FSunny.3 mph49%29.86 "Hg10 mi
6:00 AM57 °FSunny.3 mph55%29.83 "Hg10 mi
5:00 AM54 °FClear.3 mph63%29.83 "Hg10 mi
4:00 AM55 °FClear.3 mph55%29.83 "Hg10 mi
3:00 AM55 °FClear.3 mph55%29.83 "Hg10 mi
2:00 AM57 °FClear.3 mph51%29.80 "Hg10 mi
1:00 AM59 °FClear.3 mph48%29.80 "Hg10 mi
Weather by CustomWeather, © 2015

See weather overviewHow to use our weather pages